Location: Mladá Boleslav
(50.4134°N, 14.9084°E)
Time: 05:11:28
(UTC+01:00)

ISS - Visible Passes

Search period start: 26 February 2024 00:00
Search period end: 07 March 2024 00:00
Orbit: 414 x 422 km, 51.6° (Epoch: 26 February)

Date Brightness Start Highest point End Pass type
(mag) Time Alt. Az. Time Alt. Az. Time Alt. Az.
26 Feb -0.7 03:47:12 16° E 03:47:12 16° E 03:47:59 10° ENE visible
26 Feb -3.7 05:20:09 34° W 05:21:26 70° N 05:24:50 10° E visible
27 Feb -3.2 04:34:09 57° ENE 04:34:09 57° ENE 04:37:00 10° ENE visible
27 Feb -3.7 06:07:07 10° WNW 06:10:31 81° NNE 06:13:55 10° E visible
28 Feb -0.9 03:48:08 18° ENE 03:48:08 18° ENE 03:49:08 10° ENE visible
28 Feb -3.7 05:21:03 29° WNW 05:22:38 72° N 05:26:02 10° E visible
29 Feb -3.4 04:34:59 64° NE 04:34:59 64° NE 04:38:05 10° E visible
29 Feb -3.6 06:08:09 10° WNW 06:11:32 67° SSW 06:14:54 10° ESE visible
01 Mar -1.1 03:48:54 20° ENE 03:48:54 20° ENE 03:50:06 10° E visible
01 Mar -3.8 05:21:50 26° WNW 05:23:36 85° SSW 05:27:00 10° ESE visible
02 Mar -3.7 04:35:43 78° NE 04:35:43 78° NE 04:39:00 10° E visible
03 Mar -1.2 03:49:37 21° E 03:49:37 21° E 03:50:56 10° E visible
03 Mar -3.4 05:22:33 24° W 05:24:17 50° SSW 05:27:35 10° SE visible
04 Mar -3.7 04:36:29 66° S 04:36:29 66° S 04:39:37 10° ESE visible
05 Mar -1.2 03:50:27 19° ESE 03:50:27 19° ESE 03:51:32 10° ESE visible
05 Mar -2.5 05:23:22 20° WSW 05:24:39 26° SW 05:27:31 10° SSE visible
06 Mar -2.6 04:37:24 31° S 04:37:24 31° S 04:39:44 10° SE visible
